This is the latest recevied weather packets stored in our database for station/object WX4SGA. If no packets are shown the sender has not sent any weather packets the latest 10 day(s).
| Time | Temp. | Humidity | Pressure | Rain* | Wind** | Luminosity | Snow |
|---|---|---|---|---|---|---|---|
| 1778263399 | 24.44° C | 63% | 1016.3 hPa | 0 mm | - | 304 W/m² | - |
| 1778263095 | 25° C | 61% | 1016.3 hPa | 0 mm | - | 305 W/m² | - |
| 1778262792 | 25° C | 60% | 1016.3 hPa | 0 mm | - | 566 W/m² | - |
| 1778262490 | 24.44° C | 62% | 1016.3 hPa | 0 mm | - | 727 W/m² | - |
| 1778262188 | 25° C | 61% | 1016.3 hPa | 0 mm | - | 543 W/m² | - |
| 1778261883 | 24.44° C | 61% | 1016.3 hPa | 0 mm | - | 598 W/m² | - |
| 1778261581 | 25° C | 59% | 1016.6 hPa | 0 mm | - | 556 W/m² | - |
| 1778261276 | 25° C | 61% | 1016.6 hPa | 0 mm | - | 673 W/m² | - |
| 1778260974 | 24.44° C | 62% | 1016.6 hPa | 0 mm | - | 652 W/m² | - |
| 1778260670 | 23.89° C | 63% | 1016.6 hPa | 0 mm | - | 671 W/m² | - |
| 1778260366 | 23.33° C | 62% | 1016.9 hPa | 0 mm | - | 750 W/m² | - |
| 1778260063 | 23.33° C | 63% | 1016.9 hPa | 0 mm | - | 539 W/m² | - |
| 1778259761 | 24.44° C | 64% | 1016.9 hPa | 0 mm | - | 645 W/m² | - |
| 1778259458 | 24.44° C | 60% | 1016.9 hPa | 0 mm | - | 890 W/m² | - |
| 1778259155 | 23.89° C | 65% | 1016.9 hPa | 0 mm | - | 802 W/m² | - |
| 1778258851 | 23.89° C | 63% | 1016.9 hPa | 0 mm | - | 772 W/m² | - |
| 1778258548 | 23.89° C | 64% | 1016.9 hPa | 0 mm | - | 690 W/m² | - |
| 1778258246 | 23.89° C | 63% | 1017.3 hPa | 0 mm | - | 464 W/m² | - |
| 1778257943 | 23.89° C | 63% | 1017.3 hPa | 0 mm | - | 608 W/m² | - |
| 1778257639 | 23.33° C | 64% | 1017.3 hPa | 0 mm | - | 510 W/m² | - |
| 1778257336 | 23.89° C | 64% | 1017.3 hPa | 0 mm | - | 471 W/m² | - |
| 1778257033 | 23.33° C | 66% | 1017.3 hPa | 0 mm | - | 804 W/m² | - |
| 1778256731 | 23.33° C | 66% | 1017.3 hPa | 0 mm | - | 359 W/m² | - |
| 1778256428 | 23.33° C | 64% | 1017.3 hPa | 0 mm | - | 416 W/m² | - |
| 1778256126 | 22.78° C | 65% | 1017.3 hPa | 0 mm | - | 549 W/m² | - |
* Rain latest hour (hover to see other rain measurements)
** Current wind speed in m/s (hover to see current wind gust speed)